Regional Weather Roundup
Issued by NWS Mobile, AL

Home | Current Version | Previous Version | Text Only | Print | Product List | Glossary Off
Versions: 1 2 3 4 5 6 7 8 9 10 11 12 13 14 15 16 17 18 19 20 21 22 23 24 25 26 27

000
ASUS44 KMOB 160410
RWRMOB
REGIONAL WEATHER ROUNDUP
NATIONAL WEATHER SERVICE MOBILE AL
1100 PM CDT TUE APR 15 2014

NOTE: "FAIR" INDICATES FEW OR NO CLOUDS BELOW 12,000 FEET WITH NO
      SIGNIFICANT WEATHER AND/OR OBSTRUCTIONS TO VISIBILITY.

  * THESE STATIONS ARE PART OF THE UNIVERSITY OF SOUTH ALABAMA
    MESONET AND ARE NOT UNDER NWS OR FAA QUALITY CONTROL.

ALZ061>064-160500-
COASTAL ALABAMA

CITY           SKY/WX    TMP DP  RH WIND       PRES   REMARKS
MOBILE REG APT PTCLDY    48  37  65 N9        30.18S
BROOKLEY FIELD CLEAR     49  30  48 N12       30.18S
USA CAMPUS*      N/A     45  34  65 CALM      30.20R
DOG RIVER*     NOT AVBL


CITY           SKY/WX    TMP DP  RH WIND       PRES   REMARKS
MOUNT VERNON*    N/A     37  34  87 CALM      30.20R
SARALAND*      NOT AVBL
BAY MINETTE*   NOT AVBL
LOXLEY*        NOT AVBL
ROBERTSDALE*   NOT AVBL
FAIRHOPE*      NOT AVBL
ELBERTA*       NOT AVBL
FOLEY*         NOT AVBL
GRAND BAY*       N/A     45  37  76 N5        30.16R
DAUPHIN ISLND* NOT AVBL
BON SCOUR NWR* NOT AVBL
GULF SHORES    PTCLDY    48  32  53 N7        30.17R

$$

ALZ051>060-160500-
INTERIOR SOUTHWEST AND SOUTH CENTRAL ALABAMA

CITY           SKY/WX    TMP DP  RH WIND       PRES   REMARKS
GREENVILLE     CLEAR     44  32  62 NW3       30.16R
EVERGREEN      CLEAR     42  36  79 N3        30.18R
CASTLEBERRY*   NOT AVBL
ATMORE*          N/A     45  34  65 N9        30.19R
DIXIE*         NOT AVBL
ANDALUSIA/OPP  PTCLDY    47  36  65 N6        30.15R
ANDALUSIA*     NOT AVBL
FLORALA APT    MOCLDY    44  38  79 VRB3      30.15S
FLORALA*         N/A     45  36  70 NW6       30.12R

$$

FLZ001>006-160500-
WESTERN FLORIDA PANHANDLE

CITY           SKY/WX    TMP DP  RH WIND       PRES   REMARKS
PENSACOLA      PTCLDY    50  35  56 N10       30.16R
NAS PENSACOLA  PTCLDY    49  35  58 N10       30.16R
MILTON         MOCLDY    46  36  68 NW5       30.16R
WHTNG S FIELD  MOCLDY    46  36  68 N6        30.16S


CITY           SKY/WX    TMP DP  RH WIND       PRES   REMARKS
WALNUT HILL*   NOT AVBL
JAY*           NOT AVBL
DUKE FIELD     MOCLDY    45  37  72 N6        30.14R
CRESTVIEW      MOCLDY    46  37  71 N3        30.16S
VALPARAISO     MOCLDY    46  38  74 N6        30.15R
DESTIN         PTCLDY    52  36  54 N12       30.14S

$$

MSZ076-079-160500-
INTERIOR SOUTHEAST MISSISSIPPI

CITY           SKY/WX    TMP DP  RH WIND       PRES   REMARKS
LEAKESVILLE*     N/A    N/A N/A N/A VRB2      30.20R
AGRICOLA*      NOT AVBL

$$

MARINE OBSERVATIONS

STATION/POSITION TIME  TEMP    WIND        PRES    WAVE
                       AIR SEA DIR/SP/G            HT/PER
                 (UTC) (F)     (DEG/KT/KT) (MB)    (FT/S)
PASCAGOULA       0400   51     360/ 11/ 14 1021.4S
PETIT BOIS ISLND 0400   54      10/ 21/ 25 1021.6R
GRAND BAY        0300   50     360/  5     1022.0S
KATRINA CUT      0300   54      30/ 21     1021.7S
CEDAR POINT      0300   51     360/ 10     1021.3S
E DAUPHIN ISLAND 0400   55      10/ 24/ 26 1021.2R
MIDDLE BAY LIGHT 0300   54     360/ 27     1021.0R
USCG MOBILE BAY  0400   50 67  360/  9/ 12 1020.9S
STATE DOCKS      0400   51 64              1021.7R
MEAHER PARK      0300   51     350/  6     1022.7R
WEEKS BAY        0300   47                   N/A
FORT MORGAN      0400   54      20/ 24/ 27 1020.6S
12 S ORANGE BCH  0400   55 67  360/ 23/ 27 1020.7R   3/ 4
PENSACOLA BAY    0400   51 69  340/  4/ 11 1021.6R
64 S DAUPHIN ISL 0252   59 68   10/ 21/ 27 1020.4
67 S FORT MORGAN 0300   58                 1020.0R

$$

SELECTED LOCATIONS ACROSS THE REGION

CITY           SKY/WX    TMP DP  RH WIND       PRES   REMARKS
NEW ORLEANS    PTCLDY    53  32  44 N17       30.18F
GULFPORT       CLEAR     49  34  56 NW8       30.18S
PASCAGOULA AP  CLEAR     46  35  65 N8        30.18S
PASCAGOULA*      N/A     48  34  57 VRB3      30.18R
HATTIESBURG    CLEAR     45  34  65 NW6       30.22R
LAUREL         CLEAR     45  30  57 NW9       30.21S
MERIDIAN       CLEAR     40  35  83 N5        30.22S
JACKSON        CLEAR     42  33  70 N8        30.23F
MONTGOMERY     CLEAR     44  33  65 N7        30.19R
TROY           PTCLDY    41  35  79 N3        30.17R
KINSTON*       NOT AVBL
GENEVA*          N/A     43  37  81 CALM      30.16R
ASHFORD*       NOT AVBL
DOTHAN         PTCLDY    44  37  76 NW6       30.16R
PANAMA CITY    NOT AVBL

$$




USA.gov is the U.S. government's official web portal to all federal, state and local government web resources and services.